Вернуться в каталог

VIGORIDE 5

АктивенНаукаSSO
NORAD 55056·PAYLOAD·🇺🇸 United States

Запущен Jan 3, 2023 с Cape Canaveral Space Force Station

Loading…

Ближайшие Пролёты (ближайшие 24 часа)

TLE

СвежийSource: Space-Track

Эпоха: Sep 14, 2026, 11:17 UTC

1 55056U 23001AZ  26257.47043102  .00071080  00000-0  57619-3 0  9997
2 55056  97.3136 332.5074 0006394 183.9049 176.2165 15.70525254206633

Отслеживайте VIGORIDE 5 в реальном времени с AllMySat

Download on the App Store